Location: Newark
(35.2672°N, 80.7344°W)
Time: 15:23:58
(UTC+00:00)

Tiros 1 - Pass Details

Date: 29 January 2020
Orbit: 631 x 664 km, 48.4° (Epoch: 26 February)

Event Time Altitude Azimuth Distance (km) Brightness Sun altitude
Rises 17:29:33 0° 270° (W) 2,924 10.5 36.8°
Reaches altitude 10° 17:32:12 10° 283° (WNW) 2,022 9.7 36.8°
Maximum altitude 17:36:04 25° 339° (NNW) 1,287 8.5 36.8°
Drops below altitude 10° 17:39:59 10° 36° (NE) 2,044 9.4 36.8°
Sets 17:42:41 0° 49° (NE) 2,962 10.2 36.8°
